{"data":{"norad_id":52560,"epoch":"2026-05-25T03:44:15.110016Z","epoch_age_seconds":61905,"freshness":"FRESH","line1":"1 52560U 22051AD  26145.15573044 -.00000631  00000+0 -21545-4 0  9997","line2":"2 52560  53.2128 135.8516 0001010  75.1527 284.9577 15.08839724223128","mean_motion":15.08839724,"eccentricity":0.000101,"inclination_deg":53.2128,"raan_deg":135.8516,"arg_perigee_deg":75.1527,"mean_anomaly_deg":284.9577,"bstar":-2.1545e-5,"rev_number":22312,"period_min":95.437572135395,"perigee_km":539.04552658133,"apogee_km":540.44293859031,"semimajor_km":6917.8812325858,"source":"CELESTRAK","updated_at":"2026-05-25T13:38:17.166329Z"}}